Tracking 34706 objects as of 10-Jul-2026
HD Live streaming from Space Station
objects crossing your sky now

ONEWEB-0358

Track ONEWEB-0358 now!
10-day predictions
ONEWEB-0358 is classified as:


NORAD ID: 49284
Int'l Code: 2021-090F
Perigee: 1,187.3 km
Apogee: 1,190.7 km
Inclination: 87.9 °
Period: 109.0 minutes
Semi major axis: 7559 km
RCS: Unknown
Launch date: October 14, 2021
Source: United Kingdom (UK)
Launch site: VOSTOCHNY COSMODROME (VOSTO)
Your satellite tracking list
Your tracking list is empty




NASA's NSSDC Master Catalog

Two Line Element Set (TLE):
1 49284U 21090F   26190.15607339 -.00002468  00000-0 -61043-2 0  9999
2 49284  87.9158 270.0678 0002241  87.0513 273.0877 13.20756474233450
Source of the keplerian elements: AFSPC